Change the Weather History Date:

Thursday, May 23, 2013

  Actual Average Record
Temperature  
Mean Temperature 46 °F -  
Max Temperature 53 °F 69 °F 93 °F (1964)
Min Temperature 39 °F 47 °F 27 °F (1963)
Degree Days  
Heating Degree Days 19    
Moisture  
Dew Point 34 °F    
Average Humidity 65    
Maximum Humidity 93    
Minimum Humidity 38    
Precipitation  
Precipitation 0.11 in - - ()
Sea Level Pressure  
Sea Level Pressure 30.13 in    
Wind  
Wind Speed 15 mph (NNE)    
Max Wind Speed 21 mph    
Max Gust Speed 30 mph    
Visibility 10 miles    
Events      
Averages and records for this station are not official NWS values.
T = Trace of Precipitation, MM = Missing Value Source: NWS Daily Summary

Daily Weather History Graph

Daily Weather History Graph

Search for Another Location

Airport or City:

Trip Planner

Search our weather history database for the weather conditions in past years. The results will help you decide how hot, cold, wet, or windy it might be!

Date:

Astronomy

May. 23, 2013 Rise Set
Actual Time 5:12 AM CDT 8:22 PM CDT
Civil Twilight 4:37 AM CDT 8:57 PM CDT
Nautical Twilight 3:51 AM CDT 9:43 PM CDT
Astronomical Twilight 2:56 AM CDT 10:40 PM CDT
Moon 6:51 PM CDT (5/23) 4:02 AM CDT (5/23)
Length of Visible Light 16h 20m
Length of Day
15h 09m
Waxing Gibbous, 97% of the Moon is Illuminated
May 23
Waxing Gibbous
May 24
Full
May 31
Last Quarter
Jun 8
New
Jun 16
First Quarter

Hourly Weather History & Observations

Time (CDT) Temp. Windchill Dew Point Humidity Pressure Visibility Wind Dir Wind Speed Gust Speed Precip Events Conditions
12:15 AM 50.0 °F - 46.4 °F 87% 29.86 in 10.0 mi NNE 16.1 mph 27.6 mph N/A   Overcast
12:35 AM 48.2 °F - 46.4 °F 93% 29.87 in 10.0 mi NNE 16.1 mph 25.3 mph 0.01 in   Overcast
12:55 AM 48.2 °F - 46.4 °F 93% 29.87 in 10.0 mi NNE 15.0 mph 28.8 mph 0.02 in   Overcast
1:15 AM 46.4 °F 40.4 °F 44.6 °F 93% 29.88 in 10.0 mi NNE 13.8 mph 25.3 mph 0.01 in   Overcast
1:35 AM 46.4 °F 39.0 °F 44.6 °F 93% 29.89 in 10.0 mi North 19.6 mph 27.6 mph 0.02 in   Overcast
1:55 AM 44.6 °F 37.4 °F 42.8 °F 93% 29.89 in 10.0 mi North 16.1 mph 25.3 mph 0.04 in   Overcast
2:15 AM 44.6 °F 36.9 °F 42.8 °F 93% 29.90 in 10.0 mi North 18.4 mph 24.2 mph 0.01 in   Overcast
2:35 AM 44.6 °F 37.4 °F 41.0 °F 87% 29.91 in 10.0 mi North 16.1 mph 21.9 mph 0.01 in   Overcast
2:55 AM 42.8 °F 35.1 °F 39.2 °F 87% 29.91 in 10.0 mi North 16.1 mph 23.0 mph 0.02 in   Overcast
3:15 AM 42.8 °F 35.1 °F 39.2 °F 87% 29.92 in 10.0 mi North 16.1 mph 25.3 mph N/A   Overcast
3:35 AM 42.8 °F 34.8 °F 39.2 °F 87% 29.93 in 10.0 mi North 17.3 mph 28.8 mph 0.01 in   Mostly Cloudy
3:55 AM 41.0 °F 32.5 °F 39.2 °F 93% 29.93 in 10.0 mi North 17.3 mph 23.0 mph 0.02 in   Mostly Cloudy
4:15 AM 41.0 °F 33.1 °F 39.2 °F 93% 29.94 in 10.0 mi North 15.0 mph 24.2 mph N/A   Overcast
4:35 AM 41.0 °F 33.1 °F 39.2 °F 93% 29.96 in 10.0 mi North 15.0 mph 21.9 mph 0.01 in   Overcast
4:55 AM 42.8 °F 35.1 °F 37.4 °F 81% 29.97 in 10.0 mi North 16.1 mph 23.0 mph 0.01 in   Overcast
5:15 AM 39.2 °F 30.8 °F 37.4 °F 93% 29.98 in 10.0 mi North 15.0 mph 28.8 mph N/A   Overcast
5:35 AM 41.0 °F 32.8 °F 37.4 °F 87% 30.00 in 10.0 mi NNE 16.1 mph 23.0 mph N/A   Mostly Cloudy
5:55 AM 39.2 °F 30.8 °F 37.4 °F 93% 30.00 in 10.0 mi NNE 15.0 mph 24.2 mph N/A   Overcast
6:15 AM 41.0 °F 32.8 °F 35.6 °F 81% 30.02 in 10.0 mi NNE 16.1 mph 23.0 mph N/A   Overcast
6:35 AM 39.2 °F 29.8 °F 35.6 °F 87% 30.03 in 10.0 mi NNE 18.4 mph 24.2 mph N/A   Overcast
6:55 AM 41.0 °F 32.5 °F 35.6 °F 81% 30.04 in 10.0 mi NNE 17.3 mph 27.6 mph N/A   Overcast
7:15 AM 39.2 °F 30.8 °F 33.8 °F 81% 30.06 in 10.0 mi NNE 15.0 mph 27.6 mph N/A   Overcast
7:35 AM 39.2 °F 31.6 °F 35.6 °F 87% 30.06 in 10.0 mi NNE 12.7 mph 24.2 mph N/A   Overcast
7:55 AM 41.0 °F 33.1 °F 35.6 °F 81% 30.07 in 10.0 mi North 15.0 mph 24.2 mph N/A   Overcast
8:15 AM 42.8 °F 34.0 °F 35.6 °F 76% 30.08 in 10.0 mi NNE 20.7 mph 29.9 mph N/A   Overcast
8:35 AM 42.8 °F 34.5 °F 35.6 °F 76% 30.10 in 10.0 mi North 18.4 mph 28.8 mph N/A   Overcast
8:55 AM 42.8 °F 35.1 °F 33.8 °F 70% 30.10 in 10.0 mi NNE 16.1 mph 23.0 mph N/A   Mostly Cloudy
9:15 AM 44.6 °F 37.4 °F 35.6 °F 71% 30.11 in 10.0 mi NNE 16.1 mph 20.7 mph N/A   Mostly Cloudy
9:35 AM 44.6 °F 37.4 °F 35.6 °F 71% 30.12 in 10.0 mi North 16.1 mph 25.3 mph N/A   Mostly Cloudy
9:55 AM 46.4 °F 40.1 °F 33.8 °F 62% 30.12 in 10.0 mi NNE 15.0 mph 26.5 mph N/A   Scattered Clouds
10:15 AM 46.4 °F 40.7 °F 35.6 °F 66% 30.13 in 10.0 mi NNE 12.7 mph 24.2 mph N/A   Mostly Cloudy
10:35 AM 46.4 °F 39.5 °F 33.8 °F 62% 30.13 in 10.0 mi NNE 17.3 mph 28.8 mph N/A   Mostly Cloudy
10:55 AM 46.4 °F 38.7 °F 35.6 °F 66% 30.14 in 10.0 mi North 20.7 mph 28.8 mph N/A   Partly Cloudy
11:15 AM 46.4 °F 39.5 °F 33.8 °F 62% 30.15 in 10.0 mi NE 17.3 mph 29.9 mph N/A   Clear
11:35 AM 48.2 °F - 33.8 °F 58% 30.15 in 10.0 mi North 17.3 mph 24.2 mph N/A   Clear
11:55 AM 48.2 °F - 32.0 °F 54% 30.16 in 10.0 mi NNE 19.6 mph 26.5 mph N/A   Clear
12:15 PM 50.0 °F - 33.8 °F 54% 30.16 in 10.0 mi NNE 19.6 mph 25.3 mph N/A   Clear
12:35 PM 48.2 °F - 30.2 °F 50% 30.17 in 10.0 mi NNE 13.8 mph 27.6 mph N/A   Clear
12:55 PM 48.2 °F - 28.4 °F 46% 30.17 in 10.0 mi North 16.1 mph 26.5 mph N/A   Clear
1:15 PM 50.0 °F - 30.2 °F 47% 30.17 in 10.0 mi NNE 20.7 mph 27.6 mph N/A   Clear
1:35 PM 51.8 °F - 32.0 °F 47% 30.18 in 10.0 mi North 19.6 mph 26.5 mph N/A   Clear
1:55 PM 51.8 °F - 30.2 °F 44% 30.18 in 10.0 mi North 16.1 mph 25.3 mph N/A   Clear
2:15 PM 51.8 °F - 32.0 °F 47% 30.18 in 10.0 mi North 18.4 mph 26.5 mph N/A   Clear
2:35 PM 51.8 °F - 30.2 °F 44% 30.19 in 10.0 mi NNE 17.3 mph 27.6 mph N/A   Clear
2:55 PM 51.8 °F - 32.0 °F 47% 30.19 in 10.0 mi NNE 15.0 mph 24.2 mph N/A   Clear
3:15 PM 51.8 °F - 30.2 °F 44% 30.19 in 10.0 mi NNE 18.4 mph 25.3 mph N/A   Clear
3:35 PM 53.6 °F - 33.8 °F 47% 30.20 in 10.0 mi North 13.8 mph 21.9 mph N/A   Clear
3:55 PM 53.6 °F - 30.2 °F 41% 30.20 in 10.0 mi North 20.7 mph 26.5 mph N/A   Clear
4:15 PM 51.8 °F - 30.2 °F 44% 30.21 in 10.0 mi North 18.4 mph 24.2 mph N/A   Clear
4:35 PM 53.6 °F - 32.0 °F 44% 30.21 in 10.0 mi NNE 13.8 mph 20.7 mph N/A   Clear
4:55 PM 53.6 °F - 30.2 °F 41% 30.22 in 10.0 mi North 16.1 mph 19.6 mph N/A   Clear
5:15 PM 53.6 °F - 30.2 °F 41% 30.23 in 10.0 mi NNE 13.8 mph 21.9 mph N/A   Clear
5:35 PM 51.8 °F - 30.2 °F 44% 30.23 in 10.0 mi North 16.1 mph 21.9 mph N/A   Clear
5:55 PM 51.8 °F - 28.4 °F 41% 30.24 in 10.0 mi NNE 18.4 mph 24.2 mph N/A   Clear
6:15 PM 51.8 °F - 28.4 °F 41% 30.24 in 10.0 mi North 17.3 mph 23.0 mph N/A   Clear
6:35 PM 51.8 °F - 30.2 °F 44% 30.25 in 10.0 mi North 15.0 mph 20.7 mph N/A   Clear
6:55 PM 51.8 °F - 26.6 °F 38% 30.26 in 10.0 mi NNE 13.8 mph 23.0 mph N/A   Clear
7:15 PM 48.2 °F - 28.4 °F 46% 30.27 in 10.0 mi NNE 13.8 mph - N/A   Clear
7:35 PM 48.2 °F - 28.4 °F 46% 30.28 in 10.0 mi NNE 12.7 mph 16.1 mph N/A   Clear
7:55 PM 46.4 °F 41.5 °F 28.4 °F 50% 30.29 in 10.0 mi NNE 10.4 mph 17.3 mph N/A   Clear
8:15 PM 46.4 °F 41.5 °F 28.4 °F 50% 30.29 in 10.0 mi NNE 10.4 mph - N/A   Clear
8:35 PM 44.6 °F 38.8 °F 28.4 °F 53% 30.30 in 10.0 mi NNE 11.5 mph 16.1 mph N/A   Clear
8:55 PM 44.6 °F 40.2 °F 28.4 °F 53% 30.30 in 10.0 mi NNE 8.1 mph - N/A   Clear
9:15 PM 42.8 °F 38.0 °F 28.4 °F 57% 30.31 in 10.0 mi NNE 8.1 mph - N/A   Clear
9:35 PM 42.8 °F 37.0 °F 28.4 °F 57% 30.32 in 10.0 mi NNE 10.4 mph - N/A   Clear
9:55 PM 42.8 °F 38.6 °F 28.4 °F 57% 30.33 in 10.0 mi North 6.9 mph - N/A   Clear
10:15 PM 42.8 °F 39.3 °F 28.4 °F 57% 30.33 in 10.0 mi NNE 5.8 mph - N/A   Clear
10:35 PM 41.0 °F 38.0 °F 28.4 °F 61% 30.34 in 10.0 mi North 4.6 mph - N/A   Clear
10:55 PM 39.2 °F 37.0 °F 28.4 °F 65% 30.34 in 10.0 mi North 3.5 mph - N/A   Clear
11:15 PM 39.2 °F 37.0 °F 30.2 °F 70% 30.34 in 10.0 mi NNW 3.5 mph - N/A   Clear
11:35 PM 39.2 °F 35.0 °F 30.2 °F 70% 30.34 in 10.0 mi NNW 5.8 mph - N/A   Clear
11:55 PM 39.2 °F 35.0 °F 30.2 °F 70% 30.34 in 10.0 mi NNW 5.8 mph - N/A   Clear